This demonstration page uses our WeatherBlox Daily Observations layout. Learn more.

Left ArrowRight Arrow

38.83388, -104.82136

Hourly Observations for January 26, 2022

Temp ( °F °C ) Dew Point ( °F °C ) Humidity (%) Winds ( mph kmh ) Pressure ( in mb ) Visibility ( mi km ) Precip ( " mm )
12:08 am 00:08 Clear with Light Snow 18 -8 14 -10 86 86 SW 5 7 30.02 1017 9 14 0.00 0.00
12:17 am 00:17 Mostly Cloudy 18 -8 14 -10 86 86 Calm 30.02 1017 10 16 0.00 0.00
12:32 am 00:32 Cloudy with Light Snow 18 -8 14 -10 86 86 Calm 30.01 1016 10 16 0.00 0.00
12:45 am 00:45 Cloudy 18 -8 14 -10 86 86 WNW 5 7 30.00 1016 10 16 0.00 0.00
12:50 am 00:50 Cloudy with Light Snow 18 -8 14 -10 86 86 W 6 9 30.00 1016 10 16 0.00 0.00
12:58 am 00:58 Cloudy with Light Snow 17 -8.1 14 -9.8 88 88 W 6 9 30.00 1016 10 16 0.00 0.00
1:28 am 01:28 Mostly Cloudy with Light Snow 18 -8 14 -10 86 86 W 5 7 29.99 1016 9 14 0.00 0.00
1:33 am 01:33 Mostly Cloudy with Light Snow 18 -8 16 -9 93 93 W 3 6 29.97 1015 10 16 0.00 0.00
1:35 am 01:35 Mostly Cloudy 18 -8 16 -9 93 93 W 3 6 29.97 1015 10 16 0.00 0.00
1:40 am 01:40 Partly Cloudy 16 -9 14 -10 93 93 Calm 29.99 1016 10 16 0.00 0.00
1:46 am 01:46 Partly Cloudy with Isolated Snow Showers 16 -9 14 -10 93 93 WNW 3 6 29.98 1015 10 16 0.00 0.00
1:52 am 01:52 Mostly Clear 16 -9 14 -10 93 93 WNW 3 6 29.98 1015 10 16 0.00 0.00
1:58 am 01:58 Clear 16 -9 14 -10.1 92 92 W 3 6 29.98 1015 10 16 0.00 0.00
2:58 am 02:58 Clear 16 -9.1 12 -11 86 86 Calm 29.96 1014 10 16 0.00 0.00
3:58 am 03:58 Clear 15 -9.5 11 -11.6 85 85 Calm 29.93 1013 10 16 0.00 0.00
4:58 am 04:58 Clear 15 -9.7 10 -12.1 83 83 Calm 29.92 1013 10 16 0.00 0.00
5:58 am 05:58 Clear 14 -10.1 10 -12.5 83 83 Calm 29.90 1013 10 16 0.00 0.00
6:58 am 06:58 Clear 14 -10 9 -12.7 81 81 Calm 29.89 1012 10 16 0.00 0.00
7:58 am 07:58 Sunny 17 -8.4 11 -11.4 79 79 Calm 29.86 1011 10 16 0.00 0.00
8:58 am 08:58 Sunny 23 -4.9 12 -10.9 63 63 NNE 3 6 29.83 1010 10 16 0.00 0.00
9:58 am 09:58 Sunny 26 -3.6 15 -9.6 64 64 Calm 29.83 1010 10 16 0.00 0.00
10:58 am 10:58 Sunny 30 -1.2 17 -8.6 58 58 Calm 29.80 1009 10 16 0.00 0.00
11:58 am 11:58 Sunny 34 1.3 17 -8.5 48 48 Calm 29.78 1008 10 16 0.00 0.00
12:58 pm 12:58 Sunny 38 3.2 16 -9.1 40 40 ENE 3 6 29.75 1007 10 16 0.00 0.00
1:58 pm 13:58 Sunny 39 4.1 10 -12.4 29 29 Calm 29.73 1007 10 16 0.00 0.00
2:58 pm 14:58 Sunny 40 4.2 8 -13.2 27 27 E 5 7 29.76 1008 10 16 0.00 0.00
3:58 pm 15:58 Sunny 36 2.3 7 -13.9 29 29 SE 6 9 29.80 1009 10 16 0.00 0.00
4:58 pm 16:58 Sunny 35 1.5 6 -14.2 30 30 ESE 8 13 29.82 1010 10 16 0.00 0.00
5:58 pm 17:58 Clear 34 1.2 7 -14.1 31 31 ESE 8 13 29.85 1011 10 16 0.00 0.00
6:58 pm 18:58 Clear 33 0.3 6 -14.5 32 32 SE 12 19 29.90 1013 10 16 0.00 0.00
7:58 pm 19:58 Clear 30 -1 8 -13.2 39 39 ESE 10 17 29.92 1013 10 16 0.00 0.00
8:58 pm 20:58 Clear 29 -1.4 11 -11.8 45 45 ESE 10 17 29.90 1012 10 16 0.00 0.00
9:58 pm 21:58 Mostly Clear 30 -1.3 10 -12.3 43 43 ESE 12 19 29.88 1012 10 16 0.00 0.00
10:58 pm 22:58 Mostly Cloudy 28 -2.1 9 -13 43 43 E 12 19 29.89 1012 10 16 0.00 0.00
11:58 pm 23:58 Cloudy 26 -3.4 10 -12.1 51 51 Calm 29.88 1012 10 16 0.00 0.00

Powered by AerisWeather